Regional Weather Roundup
Issued by NWS Lake Charles, LA

Home | Current Version | Previous Version | Text Only | Print | Product List | Glossary On
Versions: 1 2 3 4 5 6 7 8 9 10 11 12 13 14 15 16 17 18 19 20 21 22 23 24 25 26 27 28 29 30 31 32 33 34 35 36 37 38 39 40 41 42 43 44 45 46 47 48 49 50
000
ASUS44 KLCH 222010
RWRLCH
REGIONAL WEATHER ROUNDUP
NATIONAL WEATHER SERVICE LAKE CHARLES LA
300 PM CDT SAT JUL 22 2017

Note: "fair" indicates few or no clouds below 12,000 feet with no
significant weather and/or obstructions to visibility.


ACROSS SOUTHEAST TEXAS

CITY           SKY/WX    TMP DP  RH WIND       PRES   REMARKS
BEAUMONT       CLOUDY    83  74  74 SW10      29.96S THUNDER
BEAUMONT CITY  FAIR      89  71  55 MISG      29.95F
ORANGE         TSTM      80  74  82 NW17      29.99R
JASPER           N/A     89  76  66 S8        29.97F HX 100
$$

ACROSS CENTRAL LOUISIANA

CITY           SKY/WX    TMP DP  RH WIND       PRES   REMARKS
LEESVILLE      CLOUDY    77  73  88 S5        29.95F THUNDER
FULLERTON      FAIR      86  74  67 VRB6      29.95R THUNDER
ALEXANDRIA INT PTSUNNY   83  74  74 S10       29.94S
ESLER FIELD    MOSUNNY   93  76  57 S9        29.94F HX 105
DERIDDER       LGT RAIN  76  74  95 CALM      29.99F
OAKDALE        TSTM      75  72  89 N6        29.97F
OPELOUSAS      LGT RAIN  87  75  66 CALM      29.96F
$$

ACROSS SOUTHWEST AND SOUTH CENTRAL LOUISIANA

CITY           SKY/WX    TMP DP  RH WIND       PRES   REMARKS
SULPHUR        CLOUDY    88  75  64 E6        29.97F THUNDER
LAKE CHARLES   LGT RAIN  85  75  72 N8        29.96F
CHENNAULT INT  PTSUNNY   81  75  83 VRB3      29.98S THUNDER
CAMERON PHI    CLEAR     86  73  66 S13       29.95F
DEQUINCY       FAIR      83  74  76 CALM      29.97F
JENNINGS       TSTM      77  71  83 N3        29.98F
LAFAYETTE      CLOUDY    83  74  74 S7        29.99F
NEW IBERIA     CLOUDY    82  71  69 S9        29.99F
ABBEVILLE      FAIR      82  75  78 S6        29.98F
PATTERSON      LGT RAIN  76  74  93 S10       30.02F
SALT POINT       N/A     78  74  87 SE7       30.00F
$$

SELECTED SITES ACROSS THE REGION

CITY           SKY/WX    TMP DP  RH WIND       PRES   REMARKS
HOUSTON BUSH   CLOUDY    91  72  53 SE9       29.93F
HOUSTON HOBBY  CLOUDY    92  76  59 S9        29.94F HX 104
GALVESTON      CLOUDY    88  79  74 S10       29.97F HX 103
COLLEGE STAT   MOSUNNY   98  71  41 S14G20    29.92F HX 106
CONROE         CLOUDY    94  73  50 VRB3      29.93F HX 103
HUNTSVILLE     MOSUNNY   93  69  45 VRB3      29.94F
LUFKIN         MOSUNNY   92  72  51 VRB3      29.94F
SHREVEPORT     PTSUNNY   93  74  53 S7        29.92F HX 103
MONROE         PTSUNNY   93  71  48 CALM      29.92F HX 100
NATCHEZ MS     NOT AVBL
BATON ROUGE    CLOUDY    79  74  84 CALM      30.00R
N.O. INTL ARPT CLOUDY    81  76  84 SW8       30.02R THUNDER
SLIDELL        CLOUDY    85  74  69 E6        29.98S
$$

MARINE REPORTS

STATION/POSITION TIME  SKY/WX   TEMP    WIND        PRES    VSBY
                                AIR SEA DIR/SP/G
                 (UTC)          (F)     (DEG/KT/KT) (MB)    (MI)
BUOY 30 S HIGH I 1850            83 87  180/ 10/ 14 1015.7
WVE H/P(F/S)=  1/ 5

SEA RIM ST PARK  1900            85     200/ 13/ 15 1015.8F
PORT ARTHUR      1948            85 89  190/ 11/ 17 1014.5F
SABINE PASS N    1948            86 89  170/ 17/ 22 1015.9F
TEXAS POINT      NOT AVBL
CALCASIEU PASS   1948            84 88  230/ 15/ 18 1014.1F
LK CHARLES BEACH 1948            80 87              1015.4F
MARSH ISLAND     NOT AVBL
FRESH WATER LOCK 1948            84 90  190/ 10/ 14 1015.4F
AMERADA PASS     1948            77 87   40/  2/  4 1016.4F
$$



USA.gov is the U.S. government's official web portal to all federal, state and local government web resources and services.